Location: Drummondville
(45.8830°N, 72.4830°W)
Time: 05:30:13
(UTC-04:00)

Vanguard 3 - Visible Passes

Search period start: 22 June 2018 00:00
Search period end: 02 July 2018 00:00
Orbit: 508 x 3264 km, 33.3° (Epoch: 21 June)

Date Brightness Start Highest point End Pass type
(mag) Time Alt. Az. Time Alt. Az. Time Alt. Az.
22 Jun 9.2 02:27:39 11° SSE 02:28:14 11° SE 02:29:42 10° SE visible
23 Jun 8.7 03:22:29 15° S 03:25:12 21° SSE 03:30:39 10° ESE visible
24 Jun 9.2 02:12:46 11° SE 02:12:46 11° SE 02:13:33 10° SE visible
24 Jun 8.7 04:17:47 10° SW 04:22:33 29° SSE 04:29:55 10° ESE visible
25 Jun 8.4 03:07:38 17° S 03:09:16 20° SSE 03:14:02 10° ESE visible
26 Jun 8.6 04:02:31 11° SW 04:06:40 26° S 04:13:01 10° ESE visible
27 Jun 8.3 02:52:51 18° S 02:53:25 19° SSE 02:57:32 10° ESE visible
28 Jun 8.4 03:47:48 14° SW 03:50:51 23° S 03:56:12 10° ESE visible
29 Jun 8.4 02:38:14 17° SSE 02:38:14 17° SSE 02:41:08 10° SE visible
30 Jun 8.2 03:33:17 17° SSW 03:35:04 20° S 03:39:29 10° SE visible
01 Jul 8.8 02:23:49 13° SE 02:23:49 13° SE 02:24:48 10° SE visible
